• Join FlightAware (Why Join?)
  • Login
  • US Flag 
10:46PM EST


 

Airport Tracker/Info


-or-


 

Live Flight TrackerFlight Track Log ✈ WBR2634 ✈ 13-Sep-2013 ✈ KBRL - KORD

Flight Track Log - Related Links

Times and Time Zones

All times are in EDT time to prevent confusion due to time zone crossing. See the WBR2634 flight status page for this flight to view local times or setup timezone preferences in your user account.

Time Position Orientation Groundspeed Altitude Reporting Facility
EDT Latitude Longitude Course Direction KTS MPH feet Rate Location/Type
05:37PM 40.8211 -91.1008 66° East 115 132 2,700  Level Chicago Center
05:38PM 40.8958 -90.8379 73° East  Level Estimated
05:38PM 40.8303 -91.0636 72° East 107 123 3,600  Level Chicago Center
05:39PM 40.8919 -90.7828 57° Northeast  Level FlightAware Approximate
05:39PM 40.8478 -91.0189 63° Northeast 110 127 4,700  Level Chicago Center
05:40PM 40.9105 -90.7350 66° East  Level FlightAware Approximate
05:40PM 40.8608 -90.9800 66° East 114 131 5,600  Level Chicago Center
05:41PM 40.9272 -90.6857 66° East  Level FlightAware Approximate
05:41PM 40.8753 -90.9400 64° Northeast 118 136 6,400  Level Chicago Center
05:42PM 40.9438 -90.6365 66° East  Level FlightAware Approximate
05:42PM 40.8864 -90.8994 70° East 118 136 7,300  Level Chicago Center
05:43PM 40.9000 -90.8586 66° East 120 138 7,900 629 Climbing Chicago Center
05:44PM 40.9111 -90.8156 71° East 123 142 8,600 532 Climbing Chicago Center
05:45PM 40.9281 -90.7631 67° East 127 146 9,000 194 Climbing Chicago Center
05:46PM 40.9442 -90.7128 67° East 143 165 9,000  Level Chicago Center
05:47PM 40.9636 -90.6639 62° Northeast 149 171 9,000 48 Level Chicago Center
05:48PM 40.9828 -90.6150 63° Northeast 148 170 9,100 48 Climbing Chicago Center
05:49PM 40.9956 -90.5647 71° East 146 168 9,100  Level Chicago Center
05:50PM 41.0131 -90.5144 65° Northeast 148 170 9,100  Level Chicago Center
05:51PM 41.0297 -90.4669 65° Northeast 145 167 9,100  Level Chicago Center
05:52PM 41.0486 -90.4061 68° East 147 169 9,100  Level Chicago Center
05:53PM 41.0661 -90.3564 65° Northeast 149 171 9,100  Level Chicago Center
05:54PM 41.0831 -90.3069 66° East 148 170 9,100  Level Chicago Center
05:56PM 41.0981 -90.2575 68° East 145 167 9,100  Level Chicago Center
05:57PM 41.1128 -90.2058 69° East 148 170 9,100  Level Chicago Center
05:58PM 41.1325 -90.1592 61° Northeast 145 167 9,100  Level Chicago Center
05:59PM 41.1528 -90.1019 65° Northeast 142 163 9,100  Level Chicago Center
06:00PM 41.1689 -90.0519 67° East 146 168 9,100 -48 Level Chicago Center
06:01PM 41.1853 -90.0025 66° East 147 169 9,000 -48 Descending Chicago Center
06:02PM 41.2019 -89.9550 65° Northeast 143 165 9,000 48 Level Chicago Center
06:03PM 41.2164 -89.9047 69° East 144 166 9,100 48 Climbing Chicago Center
06:04PM 41.2333 -89.8564 65° Northeast 145 167 9,100  Level Chicago Center
06:05PM 41.2497 -89.8075 66° East 145 167 9,100 -48 Level Chicago Center
06:06PM 41.2689 -89.7475 67° East 146 168 9,000 -48 Descending Chicago Center
06:07PM 41.2819 -89.6972 71° East 145 167 9,000  Level Chicago Center
06:08PM 41.2956 -89.6481 70° East 143 165 9,000  Level Chicago Center
06:09PM 41.3094 -89.5978 70° East 144 166 9,000  Level Chicago Center
06:10PM 41.3219 -89.5461 72° East 145 167 9,000 -48 Level Chicago Center
06:11PM 41.3369 -89.4950 69° East 146 168 8,900 -290 Descending Chicago Center
06:12PM 41.3561 -89.4331 68° East 150 173 8,400 -387 Descending Chicago Center
06:13PM 41.3725 -89.3819 67° East 151 174 8,100 -194 Descending Chicago Center
06:14PM 41.3886 -89.3319 67° East 149 171 8,000 -48 Descending Chicago Center
06:15PM 41.4050 -89.2819 66° East 147 169 8,000  Level Chicago Center
06:16PM 41.4200 -89.2319 68° East 145 167 8,000 48 Level Chicago Center
06:17PM 41.4369 -89.1758 68° East 142 163 8,100 48 Climbing Chicago Center
06:18PM 41.4519 -89.1264 68° East 143 165 8,100 -48 Level Chicago Center
06:19PM 41.4647 -89.0756 71° East 145 167 8,000 -48 Descending Chicago Center
06:20PM 41.4786 -89.0244 70° East 145 167 8,000  Level Chicago Center
06:21PM 41.4936 -88.9753 68° East 144 166 8,000  Level Chicago Center
06:22PM 41.5117 -88.9161 68° East 144 166 8,000 48 Level Chicago Center
06:23PM 41.5267 -88.8661 68° East 145 167 8,100  Climbing Chicago Center
06:24PM 41.5400 -88.8150 71° East 146 168 8,000 -48 Descending Chicago Center
06:26PM 41.5564 -88.7644 67° East 148 170 8,000  Level Chicago Center
06:27PM 41.5725 -88.7156 66° East 145 167 8,000  Level Chicago Center
06:28PM 41.5919 -88.6575 66° East 143 165 8,000  Level Chicago Center
06:29PM 41.6067 -88.6064 69° East 146 168 8,000  Level Chicago Center
06:30PM 41.6194 -88.5564 71° East 145 167 8,000  Level Chicago Center
06:31PM 41.6256 -88.5003 82° East 151 174 8,000  Level Chicago Center
06:32PM 41.6367 -88.4475 74° East 149 171 8,000  Level Chicago Center
06:33PM 41.6481 -88.3953 74° East 148 170 8,000  Level Chicago Center
06:34PM 41.6603 -88.3319 75° East 147 169 8,000 48 Level Chicago Center
06:35PM 41.6703 -88.2778 76° East 148 170 8,100 48 Climbing Chicago Center
06:36PM 41.6811 -88.2231 75° East 153 176 8,100 -532 Level Chicago Center
06:37PM 41.7114 -88.1867 42° Northeast 152 175 7,000 -1,065 Descending Chicago Center
06:38PM 41.7408 -88.1492 44° Northeast 148 170 5,900 -1,113 Descending Chicago Center
06:39PM 41.7764 -88.1058 42° Northeast 144 166 4,700 -871 Descending Chicago Center
06:40PM 41.8119 -88.0650 41° Northeast 156 180 4,100 -672 Descending Chicago Center
06:41PM 41.8489 -88.0231 40° Northeast 166 191 3,300 -953 Descending Chicago Center
06:42PM 41.8833 -87.9833 41° Northeast 167 192 2,400 -981 Descending Chicago TRACON
06:43PM 41.9167 -87.9500 37° Northeast 161 185 1,600 -810 Descending Chicago TRACON
06:44PM 41.9500 -87.9000 48° Northeast 156 180 700 -818 Descending Chicago TRACON
06:46PM 41.9667 -87.9000 37° Northeast  Level FlightAware Approximate